Location: Newark
(48.1500°N, 13.1167°E)
Time: 22:47:30
(UTC+00:00)

XW-2D - Pass Details

Date: 07 December 2021
Orbit: 502 x 522 km, 97.5° (Epoch: 19 January)

Event Time Altitude Azimuth Distance (km) Brightness Sun altitude
Rises 15:42:08 0° 150° (SSE) 2,618 ? -4.8°
Reaches altitude 10° 15:44:15 10° 143° (SE) 1,741 ? -5.1°
Maximum altitude 15:47:50 44° 71° (ENE) 728 ? -5.7°
Drops below altitude 10° 15:51:28 10° 359° (N) 1,766 ? -6.2°
Sets 15:53:38 0° 353° (N) 2,663 ? -6.5°
